Date String (YYYY-MM-DD hh:mm:ss) UTC,Instrument flags,Ambient pressure (hPa),Sample flow (lpm),Bypass flow (lpm),Sample temperature (°C),Ambient temperature (°C),ASC tube jacket temperature (°C),LED temperature (°C),Box temperature (°C),Sample RH (%),Mass concentration (μg/m³),Mass concentration (μg/m³)
DateTimeUTC,F1_M11,P_M11,Q1_M11,Q2_M11,T1_M11,T2_M11,T3_M11,T4_M11,T5_M11,U1_M11,X0_M11,X2_M11
2021-08-14 04:00:00,,0834.1,5.01,0.00,30.7,28.7,00.0,39.3,31.8,34.0,0028.69,0011.18
2021-08-14 04:01:00,,0834.1,4.99,0.00,30.7,28.8,00.0,39.3,31.8,33.9,0029.24,0011.18
2021-08-14 04:02:00,,0834.0,5.01,0.00,30.7,28.1,00.0,39.3,31.6,33.9,0027.60,0011.15
2021-08-14 04:03:00,,0834.1,5.00,0.00,30.5,26.3,00.0,39.3,31.1,34.1,0026.12,0011.13
2021-08-14 04:04:00,,0834.1,4.99,0.00,30.3,25.6,00.0,39.2,30.9,34.5,0025.13,0011.12
2021-08-14 04:05:00,,0834.1,5.01,0.00,30.2,25.7,00.0,39.2,30.9,34.7,0024.78,0011.12
2021-08-14 04:06:00,,0834.1,4.98,0.00,30.1,26.2,00.0,39.2,31.0,35.0,0025.53,0011.20
2021-08-14 04:07:00,,0834.0,5.02,0.00,30.1,26.7,00.0,39.1,31.1,35.0,0025.55,0011.17
2021-08-14 04:08:00,,0834.1,4.99,0.00,30.3,27.1,00.0,39.1,31.3,34.6,0025.74,0011.23
2021-08-14 04:09:00,,0834.1,5.00,0.00,30.4,27.4,00.0,39.1,31.3,34.2,0025.59,0011.25
2021-08-14 04:10:00,,0834.1,5.00,0.00,30.4,27.7,00.0,39.1,31.3,34.0,0025.20,0011.32
2021-08-14 04:11:00,,0834.1,5.00,0.00,30.5,27.9,00.0,39.1,31.4,33.9,0025.46,0011.35
2021-08-14 04:12:00,,0834.1,5.00,0.00,30.5,28.1,00.0,39.1,31.4,33.8,0024.95,0011.39
2021-08-14 04:13:00,,0834.1,5.02,0.00,30.5,28.2,00.0,39.1,31.5,33.7,0026.69,0011.52
2021-08-14 04:14:00,,0834.1,4.99,0.00,30.5,28.4,00.0,39.2,31.6,33.7,0027.37,0011.59
2021-08-14 04:15:00,,0834.1,5.00,0.00,30.5,28.5,00.0,39.2,31.6,33.6,0028.01,0011.75
2021-08-14 04:16:00,,0834.1,5.00,0.00,30.5,28.6,00.0,39.2,31.7,33.5,0028.34,0011.83
2021-08-14 04:17:00,,0834.1,4.99,0.00,30.6,28.7,00.0,39.3,31.7,33.5,0027.30,0011.85
2021-08-14 04:18:00,,0834.0,5.01,0.00,30.6,28.8,00.0,39.3,31.8,33.5,0027.71,0011.97
2021-08-14 04:19:00,,0834.1,4.99,0.00,30.6,28.7,00.0,39.3,31.8,33.5,0028.72,0012.05
2021-08-14 04:20:00,,0834.1,5.01,0.00,30.5,27.4,00.0,39.3,31.4,33.5,0029.68,0012.13
2021-08-14 04:21:00,,0834.0,4.99,0.00,30.3,25.9,00.0,39.2,30.9,33.8,0030.82,0012.18
2021-08-14 04:22:00,,0834.0,4.99,0.00,30.2,25.6,00.0,39.2,30.9,34.2,0031.32,0012.30
2021-08-14 04:23:00,,0834.0,5.00,0.00,30.1,25.9,00.0,39.2,30.9,34.6,0030.78,0012.32
2021-08-14 04:24:00,,0834.0,5.01,0.00,30.0,26.4,00.0,39.1,31.0,34.9,0029.93,0012.31
2021-08-14 04:25:00,,0834.0,5.00,0.00,29.9,26.8,00.0,39.0,31.1,35.0,0030.54,0012.38
2021-08-14 04:26:00,,0834.1,5.01,0.00,29.9,27.2,00.0,39.0,31.1,35.0,0030.90,0012.31
2021-08-14 04:27:00,,0834.1,5.01,0.00,29.9,27.5,00.0,39.0,31.2,34.8,0030.19,0012.30
2021-08-14 04:28:00,,0834.1,4.98,0.00,29.9,27.8,00.0,39.0,31.3,34.8,0031.05,0012.38
2021-08-14 04:29:00,,0834.1,5.00,0.00,30.0,28.0,00.0,39.0,31.3,34.7,0030.73,0012.43
2021-08-14 04:30:00,,0834.1,5.01,0.00,30.0,28.1,00.0,39.0,31.4,34.5,0030.67,0012.49
2021-08-14 04:31:00,,0834.1,4.99,0.00,30.0,28.3,00.0,39.0,31.4,34.3,0030.87,0012.47
2021-08-14 04:32:00,,0834.1,5.01,0.00,30.0,28.4,00.0,39.0,31.5,34.4,0031.27,0012.50
2021-08-14 04:33:00,,0834.1,5.01,0.00,30.0,28.5,00.0,39.0,31.5,34.3,0030.22,0012.50
2021-08-14 04:34:00,,0834.1,4.99,0.00,30.1,28.6,00.0,39.0,31.6,34.2,0030.18,0012.50
2021-08-14 04:35:00,,0834.1,5.01,0.00,30.1,28.7,00.0,39.0,31.6,34.1,0030.72,0012.55
2021-08-14 04:36:00,,0834.1,5.01,0.00,30.1,28.8,00.0,39.0,31.7,34.0,0031.84,0012.55
2021-08-14 04:37:00,,0834.1,4.99,0.00,30.1,28.8,00.0,39.0,31.7,34.1,0031.65,0012.54
2021-08-14 04:38:00,,0834.1,5.01,0.00,30.2,28.5,00.0,39.0,31.6,33.9,0031.76,0012.59
2021-08-14 04:39:00,,0834.1,4.99,0.00,30.0,27.0,00.0,39.0,31.2,34.0,0030.72,0012.56
2021-08-14 04:40:00,,0834.1,5.00,0.00,29.9,26.3,00.0,39.0,31.0,34.4,0030.06,0012.48
2021-08-14 04:41:00,,0834.1,5.00,0.00,29.8,26.5,00.0,39.0,31.1,34.6,0029.47,0012.34
2021-08-14 04:42:00,,0834.1,5.01,0.00,29.8,26.9,00.0,38.9,31.1,34.8,0028.34,0012.31
2021-08-14 04:43:00,,0834.0,4.99,0.00,29.8,27.3,00.0,38.9,31.2,35.0,0027.73,0012.20
2021-08-14 04:44:00,,0834.1,5.00,0.00,29.8,27.6,00.0,38.9,31.3,34.8,0027.89,0012.14
2021-08-14 04:45:00,,0834.1,4.98,0.00,29.9,27.9,00.0,38.8,31.3,34.8,0027.67,0012.13
2021-08-14 04:46:00,,0834.1,5.01,0.00,29.9,28.1,00.0,38.8,31.4,34.7,0027.00,0012.09
2021-08-14 04:47:00,,0834.1,5.00,0.00,29.9,28.3,00.0,38.9,31.4,34.7,0026.18,0012.05
2021-08-14 04:48:00,,0834.2,5.01,0.00,30.0,28.4,00.0,38.9,31.5,34.4,0026.29,0011.98
2021-08-14 04:49:00,,0834.2,4.99,0.00,30.0,28.6,00.0,38.9,31.6,34.4,0025.97,0011.89
2021-08-14 04:50:00,,0834.2,5.01,0.00,30.0,28.7,00.0,38.9,31.6,34.4,0026.06,0011.82
2021-08-14 04:51:00,,0834.3,4.99,0.00,30.0,28.8,00.0,38.9,31.6,34.4,0026.57,0011.81
2021-08-14 04:52:00,,0834.3,5.01,0.00,30.1,28.8,00.0,38.9,31.7,34.3,0027.30,0011.80
2021-08-14 04:53:00,,0834.2,4.99,0.00,30.0,27.6,00.0,38.9,31.3,34.2,0028.74,0011.79
2021-08-14 04:54:00,,0834.2,4.99,0.00,29.8,26.0,00.0,38.9,30.8,34.3,0028.70,0011.82
2021-08-14 04:55:00,,0834.2,5.02,0.00,29.7,25.6,00.0,38.9,30.7,34.3,0029.37,0011.89
2021-08-14 04:56:00,,0834.1,5.00,0.00,29.6,25.9,00.0,38.8,30.7,34.3,0029.81,0011.87
2021-08-14 04:57:00,,0834.2,5.00,0.00,29.5,26.4,00.0,38.8,30.8,34.5,0029.52,0011.93
2021-08-14 04:58:00,,0834.2,5.00,0.00,29.5,26.8,00.0,38.7,30.9,34.5,0028.75,0011.97
2021-08-14 04:59:00,,0834.2,4.98,0.00,29.5,27.2,00.0,38.7,31.0,34.6,0028.08,0012.04
